Flag for Finland Weather past 2 weeks in Kotka, Finland

Now
61 °F

Sunny.


Feels Like: 61 °F
Forecast: 54 / 61 °F
Wind: 8 mph from Southeast

Location: Utti

Current Time: Jul 6, 2015 at 9:32:45 PM

Latest Report: Jul 6, 2015 at 8:50 PM


Visibility: 10 mi

Pressure: 29.83 "Hg

Humidity: 45%

Dew point: 39 °F

Location of KotkaLocation

Historic Weather in Kotka — Graph

°F

Kotka temperature yesterday

Maximum temperature yesterday: 68 °F (at 12:50 PM)
Minimum temperature yesterday: 54 °F (at 11:50 PM)
Average temperature yesterday: 63 °F

Past Weeks' High & Low Weather Summary

 TemperatureHumidityPressure
High86 °F (Jul 3, 3:20 PM)100% (Jun 23, 5:20 AM)30.33 "Hg (Jun 23, 5:20 AM)
Low46 °F (Jul 6, 3:20 AM)31% (Jun 29, 3:50 PM)29.68 "Hg (Jun 24, 8:50 AM)
Average61 °F71%29.94 "Hg
* Reported Jun 21 8:20 PM — Jul 6 8:20 PM, Kotka, Weather by CustomWeather, © 2015

Note: Actual official high and low records may vary slightly from our data, if they occured in-between our weather recording intervals... More about our weather records

Advertising

Kotka weather history for previous 24 hours

 ConditionsComfort  
Time TempWeatherWind HumidityBarometerVisibility
8:20 PM
Mon, Jul 6
61 °FSunny.10 mph42%29.86 "Hg10 mi
7:50 PM63 °FPassing clouds.10 mph37%29.89 "HgN/A
7:20 PM63 °FPassing clouds.10 mph37%29.89 "HgN/A
6:50 PM64 °FPassing clouds.10 mph34%29.89 "HgN/A
6:20 PM64 °FPassing clouds.10 mph34%29.92 "HgN/A
5:50 PM64 °FPassing clouds.9 mph34%29.92 "HgN/A
5:20 PM66 °FPassing clouds.7 mph32%29.92 "HgN/A
4:50 PM64 °FPassing clouds.7 mph34%29.95 "HgN/A
4:20 PM64 °FPassing clouds.8 mph34%29.95 "HgN/A
3:50 PM64 °FPassing clouds.9 mph34%29.98 "HgN/A
3:20 PM64 °FSunny.5 mph34%29.98 "Hg10 mi
2:50 PM66 °FSunny.6 mph32%29.98 "Hg10 mi
2:20 PM63 °FSunny.7 mph34%30.01 "Hg10 mi
1:50 PM64 °FSunny.2 mph32%30.01 "Hg10 mi
1:20 PM63 °FPassing clouds.7 mph34%30.04 "HgN/A
12:50 PM63 °FSunny.3 mph34%30.04 "Hg10 mi
12:20 PM61 °FPassing clouds.6 mph36%30.04 "HgN/A
11:50 AM61 °FPassing clouds.7 mph36%30.07 "HgN/A
11:20 AM59 °FPassing clouds.7 mph36%30.07 "HgN/A
10:50 AM59 °FPassing clouds.7 mph39%30.07 "HgN/A
10:20 AM59 °FPassing clouds.7 mph39%30.09 "HgN/A
9:50 AM59 °FPassing clouds.5 mph36%30.09 "HgN/A
9:20 AM57 °FPassing clouds.6 mph41%30.09 "HgN/A
8:50 AM57 °FPassing clouds.7 mph44%30.09 "HgN/A
8:20 AM55 °FPassing clouds.7 mph51%30.09 "HgN/A
7:50 AM55 °FPassing clouds.8 mph51%30.09 "HgN/A
7:20 AM54 °FSunny.8 mph58%30.09 "Hg10 mi
6:50 AM52 °FSunny.6 mph62%30.09 "Hg10 mi
5:50 AM50 °FSunny.6 mph71%30.09 "Hg10 mi
5:20 AM48 °FSunny.7 mph76%30.09 "Hg10 mi
4:50 AM46 °FSunny.6 mph76%30.09 "Hg10 mi
4:20 AM46 °FClear.6 mph76%30.09 "Hg10 mi
3:50 AM46 °FClear.7 mph76%30.09 "Hg10 mi
3:20 AM46 °FClear.7 mph76%30.09 "Hg10 mi
2:50 AM48 °FClear.5 mph71%30.09 "Hg10 mi
2:20 AM50 °FClear.7 mph67%30.09 "Hg10 mi
1:50 AM50 °FClear.7 mph67%30.07 "Hg10 mi
1:20 AM50 °FClear.6 mph67%30.07 "Hg10 mi
12:50 AM52 °FClear.5 mph62%30.07 "Hg10 mi
12:20 AM52 °FClear.6 mph62%30.07 "Hg10 mi
11:50 PM
Sun, Jul 5
54 °FClear.7 mph63%30.07 "Hg10 mi
11:20 PM55 °FSunny.8 mph55%30.07 "Hg10 mi
10:50 PM57 °FSunny.6 mph51%30.07 "Hg10 mi
10:20 PM59 °FSunny.6 mph48%30.07 "Hg10 mi
9:50 PM61 °FPassing clouds.7 mph45%30.04 "HgN/A
9:20 PM63 °FPassing clouds.6 mph39%30.04 "HgN/A
Weather by CustomWeather, © 2015

See weather overviewHow to use our weather pages